Track WORLDVIEW-3 (WV-3) now! 10-day predictions WORLDVIEW-3 (WV-3) is classified as:
1 40115U 14048A 23084.88255911 .00003036 00000-0 36226-3 0 9998 2 40115 97.8292 160.4200 0002380 306.4100 53.6895 14.84993454466889